カタログに戻る

CZ-6A DEB

運用中SSO
NORAD 54509·DEBRIS·🇨🇳 China

打ち上げ Nov 11, 2022 から Taiyuan Satellite Launch Center

Loading…

次のパス (今後24時間)

TLE

最新Source: Space-Track

元期: Sep 13, 2026, 20:50 UTC

1 54509U 22151JM  26256.86844010 -.00000081  00000-0 -28132-4 0  9997
2 54509  98.9356 220.7105 0124646 193.1567 166.6333 13.92524327194805

AllMySatでCZ-6A DEBをリアルタイム追跡

Download on the App Store